Home   Weather   Oranjestad   Past weeks

Flag for Aruba Past Weather in Oranjestad, Aruba — Yesterday and Last 2 Weeks

Now
90 °F

Scattered clouds.


Feels Like: 108 °F
Forecast: 83 / 92 °F
Wind: 16 mph from Southeast

Location: Queen Beatrix Airport - Aruba

Current Time: Sep 23, 2017 at 12:33:43 pm

Latest Report: Sep 23, 2017 at 12:00 pm


Visibility: N/A

Pressure: 29.80 "Hg

Humidity: 75%

Dew Point: 81 °F

Location of OranjestadLocation

Past Weather in Oranjestad — Graph

°F

Oranjestad Temperature Yesterday

Maximum temperature yesterday: 91 °F (at 3:00 pm)
Minimum temperature yesterday: 82 °F (at 12:00 am)
Average temperature yesterday: 86 °F

High & Low Weather Summary for the Past Weeks

 TemperatureHumidityPressure
High95 °F (Sep 15, 2:00 pm)94% (Sep 11, 7:00 am)29.92 "Hg (Sep 11, 7:00 am)
Low79 °F (Sep 11, 12:00 am)53% (Sep 15, 11:00 am)29.71 "Hg (Sep 8, 5:00 pm)
Average86 °F76%29.82 "Hg
* Reported Sep 8 10:00 am — Sep 23 10:00 am, Oranjestad. Weather by CustomWeather, © 2017

Note: Actual official high and low records may vary slightly from our data, if they occured in-between our weather recording intervals... More about our weather records

Advertising

Oranjestad Weather History for the Previous 24 Hours

Scroll right to see more
 ConditionsComfort  
Time TempWeatherWind HumidityBarometerVisibility
10:00 am
Sat, Sep 23
88 °FScattered clouds.17 mph79%29.83 "HgN/A
9:00 am88 °FScattered clouds.12 mph79%29.83 "HgN/A
8:00 am86 °FPartly sunny.12 mph79%29.80 "HgN/A
7:00 am84 °FPassing clouds.8 mph89%29.74 "HgN/A
6:00 am84 °FPassing clouds.10 mph84%29.77 "HgN/A
2:00 am84 °FPassing clouds.7 mph89%29.74 "HgN/A
1:00 am86 °FPassing clouds.8 mph84%29.77 "HgN/A
12:00 am86 °FPassing clouds.8 mph84%29.80 "HgN/A
11:00 pm
Fri, Sep 22
86 °FPassing clouds.8 mph84%29.80 "HgN/A
10:00 pm86 °FPassing clouds.9 mph84%29.80 "HgN/A
9:00 pm88 °FPassing clouds.10 mph75%29.77 "HgN/A
8:00 pm88 °FPassing clouds.12 mph75%29.74 "HgN/A
7:00 pm88 °FPassing clouds.12 mph70%29.71 "HgN/A
6:00 pm88 °FPassing clouds.12 mph70%29.71 "HgN/A
5:00 pm90 °FPassing clouds.9 mph71%29.71 "HgN/A
4:00 pm91 °FPassing clouds.10 mph63%29.71 "HgN/A
3:00 pm91 °FPassing clouds.5 mph63%29.74 "HgN/A
2:00 pm90 °FPassing clouds.6 mph71%29.80 "HgN/A
1:00 pm88 °FPassing clouds.7 mph75%29.80 "HgN/A
12:00 pm88 °FPassing clouds.7 mph70%29.80 "HgN/A
Weather by CustomWeather, © 2017

See weather overviewHow to use our weather pages